Content
SEND FEEDBACK

Daily
Averages
Monthly
Summary
Turkmenistan

ASHGABAT, TURKMENISTAN


Home > Asia > Turkmenistan
Elevation: 775 feet     Latitude: 37 58N     Longitude: 058 20E

WEATHER
 
SELECT A DAY
Number of Records: 181,104;   Date Range: 3/15/97 - 10/19/14
 
SHARE

PRINT THIS DATA

[ ← Previous Day ]
WEATHER ALMANAC - FEBRUARY 3, 2013
[ Next Day → ]
[ °C ]   °F
Weather ElementAverageHighLow
Temperature46 °F50 °F (2:00 pm)42.8 °F (9:00 pm)
Dewpoint43.6 °F45 °F (11:00 am)41 °F (10:30 pm)
Humidity90.3 %100 % (9:00 pm)75 % (2:00 pm)
Barometer30.08 in30.32 in (11:00 pm)29.92 in (2:30 am)
Wind Speed7.2 mph13.4 mph (3:00 pm)
Weather ElementAverage
Visibility4.9 mi
Wind DirectionSW (227.6 °)

Weather ElementTotal
Precipitation---
Heating Degree Days18.6 (Base 65)
Averaged from 51 records on February 3, 2013
WEATHER CONDITIONS BREAKOUT
WIND DIRECTION BREAKOUT
WEATHER BY HOUR - FEBRUARY 3, 2013
[ °C ]   °F
Local TimeTemperatureDewpointHumidityBarometerVisibilityWind DirectionWind SpeedGust SpeedPrecipitationEventsConditions
1:00 AM46.4 °F42.8 °F87 %29.95 in5.6 miEast (100°)4.5 mphOvercast
2:00 AM47.0 °F44.0 °F84 %29.96 in6.0 miNE (40°)4.5 mphOvercast
2:00 AM46.4 °F42.8 °F87 %29.95 in5.0 miNE (50°)4.5 mphOvercast
2:30 AM46.4 °F42.8 °F87 %29.92 in4.3 miENE (70°)4.5 mphOvercast
3:00 AM46.4 °F42.8 °F87 %29.92 in5.6 miESE (110°)4.5 mphOvercast
3:30 AM46.4 °F42.8 °F87 %29.92 in6.2 miEast (90°)4.5 mphOvercast
4:00 AM46.4 °F42.8 °F87 %29.92 in5.0 miNE (40°)4.5 mphOvercast
4:30 AM46.4 °F44.6 °F93 %29.92 in5.0 miNE (40°)6.7 mphOvercast
5:00 AM46.0 °F44.0 °F88 %29.95 in6.0 miENE (70°)6.7 mphOvercast
5:00 AM46.4 °F44.6 °F93 %29.92 in6.2 miEast (80°)4.5 mphOvercast
5:30 AM46.4 °F44.6 °F93 %29.92 in6.2 miEast (80°)4.5 mphOvercast
6:00 AM46.4 °F44.6 °F93 %29.95 in6.2 miEast (100°)4.5 mphOvercast
6:30 AM46.4 °F44.6 °F93 %29.95 in6.2 miVariable2.2 mphOvercast
7:00 AM46.4 °F44.6 °F93 %29.95 in6.2 miCalmOvercast
7:30 AM46.4 °F44.6 °F93 %29.98 in6.2 miCalmOvercast
8:00 AM46.0 °F44.0 °F89 %29.99 in6.0 miCalmOvercast
8:00 AM46.4 °F44.6 °F93 %29.98 in6.2 miCalmOvercast
8:30 AM46.4 °F44.6 °F93 %29.98 inNorthOvercast
9:00 AM46.4 °F44.6 °F93 %30.01 in3.1 miNNW (330°)4.5 mphOvercast
9:30 AM46.4 °F44.6 °F93 %30.01 in3.1 miWNW (300°)4.5 mphOvercast
10:00 AM46.4 °F44.6 °F93 %30.04 in3.7 miWNW (300°)6.7 mphOvercast
10:30 AM46.4 °F44.6 °F93 %30.04 in4.3 miNW (320°)6.7 mphOvercast
11:00 AM47.0 °F45.0 °F88 %30.05 in2.0 miWNW (300°)4.5 mphOvercast
11:00 AM46.4 °F44.6 °F93 %30.04 in3.7 miNNW (340°)6.7 mphOvercast
11:30 AM46.4 °F44.6 °F93 %30.06 in3.7 miNNW (340°)6.7 mphOvercast
12:00 PM48.2 °F44.6 °F87 %30.06 in5.6 miNW (320°)6.7 mphOvercast
12:30 PM48.2 °F44.6 °F87 %30.06 in6.2 miNW (310°)8.9 mphOvercast
1:00 PM48.2 °F44.6 °F87 %30.06 in6.2 miNNW (330°)6.7 mphOvercast
2:00 PM49.0 °F44.0 °F75 %30.08 in6.0 miNW (320°)8.9 mphOvercast
2:00 PM50.0 °F44.6 °F82 %30.06 in6.2 miNNW (340°)8.9 mphOvercast
3:00 PM48.2 °F44.6 °F87 %30.06 in6.2 miNNW (340°)13.4 mphOvercast
3:30 PM48.2 °F44.6 °F87 %30.09 in6.2 miNNW (330°)11.2 mphOvercast
4:00 PM48.2 °F44.6 °F87 %30.09 in6.2 miNNW (330°)8.9 mphRainLight Rain
4:30 PM46.4 °F42.8 °F87 %30.12 in5.6 miNNW (330°)13.4 mphRainLight Rain
5:00 PM47.0 °F44.0 °F83 %30.16 in6.0 miNNW (340°)13.4 mphRainLight Rain
5:00 PM46.4 °F42.8 °F87 %30.15 in6.2 miNNW (330°)13.4 mphRainLight Rain
5:30 PM46.4 °F42.8 °F87 %30.18 in6.2 miNW (320°)13.4 mphRainLight Rain
6:00 PM46.4 °F42.8 °F87 %30.18 in6.2 miNW (320°)13.4 mphRainLight Rain
6:30 PM44.6 °F42.8 °F93 %30.21 in1.4 miNW (320°)11.2 mphRainLight Rain
7:00 PM44.6 °F42.8 °F93 %30.21 in1.9 miNW (320°)11.2 mphRainLight Rain
7:30 PM44.6 °F42.8 °F93 %30.24 in5.6 miNW (320°)13.4 mphRainLight Rain
8:00 PM44.0 °F43.0 °F94 %30.28 in1.0 miNW (320°)13.4 mphRainLight Rain
8:00 PM44.6 °F42.8 °F93 %30.27 inNW (310°)11.2 mphRainLight Rain
8:30 PM44.6 °F42.8 °F93 %30.27 in2.8 miWNW (300°)11.2 mphRainLight Rain
9:00 PM42.8 °F42.8 °F100 %30.27 in4.3 miWNW (300°)8.9 mphRainLight Rain
9:30 PM42.8 °F42.8 °F100 %30.27 in3.1 miNW (310°)8.9 mphRainLight Rain
10:00 PM42.8 °F42.8 °F100 %30.30 inNW (310°)6.7 mphRainLight Rain
10:30 PM42.8 °F41.0 °F93 %30.30 in4.3 miNW (310°)6.7 mphRainLight Rain
11:00 PM43.0 °F42.0 °F93 %30.32 in1.0 miWNW (300°)6.7 mphRainLight Rain
11:00 PM42.8 °F41.0 °F93 %30.30 in5.0 miWNW (300°)4.5 mphRainLight Rain
11:30 PM42.8 °F41.0 °F93 %30.30 in6.2 miWNW (300°)4.5 mphRainLight Rain
Hourly data recorded from UTAA, located miles away from Ashgabat, Turkmenistan







STORIES FROM OUR PARTNERS